This is the latest recevied weather packets stored in our database for station/object WX9WTF. If no packets are shown the sender has not sent any weather packets the latest 10 day(s).
| Time | Temp. | Humidity | Pressure | Rain* | Wind** | Luminosity | Snow |
|---|---|---|---|---|---|---|---|
| 1778085176 | 13.33° C | 43% | 1019.9 hPa | 0 mm | - | 553 W/m² | - |
| 1778084872 | 13.89° C | 45% | 1019.8 hPa | 0 mm | - | 618 W/m² | - |
| 1778084570 | 13.89° C | 39% | 1019.7 hPa | 0 mm | - | 610 W/m² | - |
| 1778084267 | 14.44° C | 45% | 1019.7 hPa | 0 mm | - | 644 W/m² | - |
| 1778083964 | 13.89° C | 51% | 1019.6 hPa | 0 mm | - | 718 W/m² | - |
| 1778083662 | 13.33° C | 44% | 1019.6 hPa | 0 mm | - | 655 W/m² | - |
| 1778083358 | 13.89° C | 44% | 1019.5 hPa | 0 mm | - | 637 W/m² | - |
| 1778083057 | 13.33° C | 43% | 1019.6 hPa | 0 mm | - | 812 W/m² | - |
| 1778082754 | 13.33° C | 46% | 1019.4 hPa | 0 mm | - | 764 W/m² | - |
| 1778081621 | 13.33° C | 43% | 1019.4 hPa | 0 mm | - | 718 W/m² | - |
| 1778081317 | 13.33° C | 51% | 1019.3 hPa | 0 mm | - | 704 W/m² | - |
| 1778081015 | 12.78° C | 46% | 1019.3 hPa | 0 mm | - | 715 W/m² | - |
| 1778080713 | 12.78° C | 50% | 1019.3 hPa | 0 mm | - | 677 W/m² | - |
| 1778080410 | 12.78° C | 51% | 1019.4 hPa | 0 mm | - | 658 W/m² | - |
| 1778080107 | 12.78° C | 50% | 1019.3 hPa | 0 mm | - | 654 W/m² | - |
| 1778079804 | 12.22° C | 52% | 1019.5 hPa | 0 mm | - | 639 W/m² | - |
| 1778079500 | 13.33° C | 50% | 1019.4 hPa | 0 mm | - | 630 W/m² | - |
| 1778079197 | 12.78° C | 53% | 1019.5 hPa | 0 mm | - | 635 W/m² | - |
| 1778078894 | 12.78° C | 54% | 1019.5 hPa | 0 mm | - | 415 W/m² | - |
| 1778078591 | 12.78° C | 55% | 1019.5 hPa | 0 mm | - | 436 W/m² | - |
| 1778078289 | 12.22° C | 58% | 1019.5 hPa | 0 mm | - | 464 W/m² | - |
| 1778077986 | 12.22° C | 59% | 1019.5 hPa | 0 mm | - | 543 W/m² | - |
| 1778077684 | 12.78° C | 62% | 1019.4 hPa | 0 mm | - | 530 W/m² | - |
| 1778077382 | 12.22° C | 62% | 1019.4 hPa | 0 mm | - | 527 W/m² | - |
| 1778077081 | 11.67° C | 66% | 1019.3 hPa | 0 mm | - | 509 W/m² | - |
* Rain latest hour (hover to see other rain measurements)
** Current wind speed in m/s (hover to see current wind gust speed)